FICHTELBE Weather Reports


Display with metric or nautical units.
time (UTC)temp
F
wind
direction
speed
MPH
gust
MPH
rain 1hr
in
rain 24hr
in
rain mn
in
humidity
%
barometer
mb
20260508201640 39 40 6.0 0.0 0.00 0.00 0.00 99
20260508191739 39 10 6.0 0.0 0.00 0.00 0.00 99
20260508181639 41 360 7.0 0.0 0.00 0.00 0.00 93
20260508171638 41 10 5.0 0.0 0.00 0.00 0.00 93
20260508161839 41 10 6.0 0.0 0.00 0.00 0.00 99
20260508151640 43 10 2.0 0.0 0.00 0.00 0.00 93
20260508141639 41 340 5.0 0.0 0.00 0.00 0.00 99
20260508131739 41 30 5.0 0.0 0.00 0.00 0.00 93
20260508121638 43 310 3.0 0.0 0.00 0.00 0.00 93
20260508111639 41 10 2.0 0.0 0.00 0.00 0.00 93
20260508101839 39 280 3.0 0.0 0.00 0.00 0.00 99
20260508091638 39 300 2.0 0.0 0.00 0.00 0.00 99
20260508081638 39 320 3.0 0.0 0.00 0.00 0.00 93
20260508071740 37 10 2.0 0.0 0.00 0.00 0.00 99
20260508061639 37 360 5.0 0.0 0.00 0.00 0.00 99
20260508051639 37 30 3.0 0.0 0.00 0.00 0.00 93
20260508041839 36 330 5.0 0.0 0.00 0.00 0.00 99
20260508031639 36 320 2.0 0.0 0.00 0.00 0.00 99
20260508021639 36 290 3.0 0.0 0.00 0.00 0.00 99
20260508011739 36 340 1.0 0.0 0.00 0.00 0.00 99
20260508001638 36 330 3.0 0.0 0.00 0.00 0.00 99
20260507231638 36 310 6.0 0.0 0.00 0.00 0.00 99
20260507221938 37 300 8.0 0.0 0.00 0.00 0.00 93
20260507211639 37 310 10.0 0.0 0.00 0.00 0.00 99